Location: Gunnestorp
(56.2000°N, 12.6833°E)
Time: 00:07:04
(UTC+00:00)

Daily predictions for brighter satellites

Satellite Brightness Start Highest point End
(mag) Time Altitude Azimuth Time Altitude Azimuth Time Altitude Azimuth
STARLINK-1105 3.6 00:00:00 10° W 00:02:47 31° SSW 00:05:34 10° SE
STARLINK-1209 3.8 00:00:15 10° W 00:02:59 27° SSW 00:05:43 10° SE
STARLINK-1247 3.6 00:00:53 10° W 00:03:43 31° SSW 00:06:31 10° SE
STARLINK-1227 3.6 00:01:22 10° W 00:04:09 30° SSW 00:06:55 10° SE
ATLAS CENTAUR R/B 1.0 00:02:11 10° W 00:04:16 52° SSW 00:07:56 10° SE
STARLINK-1208 3.7 00:00:19 10° W 00:04:21 51° S 00:08:22 10° ESE
STARLINK-1226 3.6 00:02:13 10° W 00:05:01 30° SSW 00:07:49 10° SE
STARLINK-1215 3.6 00:03:09 10° W 00:05:57 30° SSW 00:08:45 10° SE
STARLINK-1225 3.7 00:02:49 10° WSW 00:06:52 54° S 00:10:56 10° E
STARLINK-1217 3.6 00:04:55 10° W 00:07:42 30° SSW 00:10:30 10° SE
Cosmos 292 Rocket 4.4 00:03:39 11° SW 00:08:13 53° NW 00:13:01 10° NNE
STARLINK-1229 3.7 00:05:50 10° W 00:08:38 30° SSW 00:11:24 10° SE
Cosmos 1726 4.0 00:05:58 10° NW 00:08:41 20° W 00:10:54 12° SW
STARLINK-1271 3.8 00:05:18 10° W 00:09:20 50° SSW 00:13:21 10° ESE
STARLINK-1270 3.7 00:06:42 10° W 00:09:29 29° SSW 00:12:16 10° SE
Nadezhda 2 Rocket 4.5 00:04:33 15° S 00:09:44 84° E 00:15:53 10° NNE
Cosmos 2058 Rocket 3.1 00:05:42 10° NNW 00:10:06 74° W 00:13:46 15° S
Lacrosse 4 Rocket 3.6 00:06:30 10° NNW 00:10:30 32° NNE 00:14:24 10° E
Meteor 1-29 2.9 00:07:43 10° NNE 00:11:09 84° ESE 00:13:32 18° SSW
STARLINK-1189 3.7 00:08:33 10° W 00:11:19 29° SSW 00:14:05 10° SE
STARLINK-1230 3.7 00:07:46 10° WSW 00:11:50 55° S 00:15:53 10° E
GEOS 3 Rocket 4.3 00:07:39 13° S 00:11:50 36° SW 00:16:44 10° WNW
STARLINK-1188 3.7 00:09:26 10° W 00:12:12 29° SSW 00:14:58 10° SE
Cosmos 2228 3.7 00:08:33 10° NNW 00:12:33 40° W 00:15:32 16° SSW
STARLINK-1235 3.9 00:10:10 10° W 00:12:48 25° SSW 00:15:26 10° SE
STARLINK-1187 3.8 00:10:34 10° W 00:13:16 27° SSW 00:15:56 10° SE
SJ 16-02 2.5 00:09:55 10° NNW 00:14:11 44° NE 00:18:26 10° SE
STARLINK-1154 3.8 00:10:17 10° W 00:14:18 49° SSW 00:18:18 10° ESE
STARLINK-1191 3.7 00:11:55 10° W 00:14:38 28° SSW 00:17:22 10° SE
STARLINK-1221 3.7 00:12:47 10° W 00:15:31 28° SSW 00:18:13 10° SE
STARLINK-1222 3.7 00:13:41 10° W 00:16:24 27° SSW 00:19:07 10° SE
COSMOS 2455 3.2 00:11:39 15° SSW 00:16:31 54° ESE 00:22:23 10° NE
STARLINK-1243 3.7 00:12:43 10° WSW 00:16:48 55° S 00:20:51 10° E
Cosmos 1953 4.3 00:14:14 10° NW 00:16:52 17° W 00:19:26 10° SW
STARLINK-1214 3.8 00:14:36 10° W 00:17:19 27° SSW 00:20:00 10° SE
Cosmos 2263 4.4 00:12:25 11° SW 00:17:48 70° NW 00:23:27 10° NNE
STARLINK-1197 3.8 00:15:15 10° W 00:19:15 48° SSW 00:23:15 10° ESE
SL-14 R/B 3.4 00:18:39 15° S 00:21:43 67° E 00:25:34 10° NNE
STARLINK-1236 3.7 00:17:41 10° WSW 00:21:46 56° S 00:25:50 10° E
Cosmos 1300 2.7 00:18:06 10° NNW 00:21:56 71° W 00:25:04 15° S
IRAS Rocket 4.5 00:17:53 13° S 00:22:46 56° WSW 00:28:15 10° NNW
STARLINK-1198 3.8 00:20:12 10° W 00:24:11 46° SSW 00:28:10 10° ESE
COSMOS 2487 4.1 00:23:03 10° NW 00:25:39 20° WSW 00:27:18 15° SW
Okean 1-7 Rocket 3.6 00:22:03 15° S 00:25:43 86° ESE 00:30:16 10° NNE
Cosmos 1174 4.1 00:23:33 17° S 00:25:44 42° SE 00:29:25 10° NE
Cosmos 1461 4.4 00:22:21 10° W 00:26:24 38° NNW 00:30:40 10° NE
BREEZE M DEB (TANK) 3.6 00:26:50 17° S 00:26:50 17° S 00:28:29 10° SE
Cosmos 921 Rocket 3.9 00:23:34 13° S 00:27:05 40° ESE 00:31:09 10° NE
STARLINK-1199 3.9 00:25:12 10° W 00:29:11 45° SSW 00:33:09 10° ESE
Cosmos 2219 3.2 00:25:17 10° NW 00:31:02 88° WSW 00:36:41 10° SSE
STARLINK-1269 3.7 00:27:36 10° WSW 00:31:41 56° S 00:35:44 10° ESE
Cosmos 1626 Rocket 4.2 00:29:36 11° S 00:33:36 49° E 00:37:49 10° NNE
STARLINK-1210 3.9 00:30:10 10° W 00:34:07 44° SSW 00:38:04 10° SE
STARLINK-1200 3.7 00:32:35 10° WSW 00:36:40 56° S 00:40:44 10° ESE
Cosmos 1626 2.1 00:34:31 15° SSW 00:37:30 83° WNW 00:41:15 10° N
STARLINK-1219 3.9 00:35:08 10° W 00:39:05 42° SSW 00:43:00 10° SE
Nadezhda 1 Rocket 4.0 00:33:06 10° NNW 00:39:15 81° W 00:45:28 10° S
Cosmos 1656 Rocket 3.9 00:33:51 11° SW 00:39:21 68° NW 00:44:57 10° NNE
STARLINK-1192 3.7 00:37:33 10° W 00:41:38 56° S 00:45:42 10° ESE
FALCON 9 R/B 4.4 00:38:25 12° SSW 00:43:52 22° SSE 00:57:38 10° ESE
STARLINK-1211 4.0 00:40:06 10° W 00:44:01 41° SSW 00:47:55 10° SE
STARLINK-1244 3.7 00:42:30 10° W 00:46:34 56° S 00:50:38 10° ESE
Cosmos 2297 Rocket 2.2 00:40:59 10° NW 00:46:41 84° WSW 00:52:21 10° SSE
MOZ.5/SAFIR/RUBIN 5/SL-8 3.9 00:44:16 11° S 00:48:44 58° WSW 00:53:20 10° NNW
UNK 3.7 00:44:21 10° S 00:48:58 73° WSW 00:53:35 10° NNW
STARLINK-1245 4.0 00:45:06 10° W 00:48:59 40° SSW 00:52:52 10° SE
ERBS 2.4 00:45:58 10° W 00:49:18 77° N 00:52:40 10° E
Cosmos 1812 Rocket 3.6 00:44:49 10° NNW 00:49:20 89° ENE 00:53:49 10° S
CZ-4B R/B 4.4 00:44:43 10° NNE 00:49:39 45° E 00:54:38 10° S
Cosmos 2082 4.2 00:44:34 10° NNW 00:50:15 66° NE 00:55:53 10° SE
STARLINK-1138 3.7 00:47:28 10° W 00:51:32 55° S 00:55:36 10° ESE
SL-4 R/B 3.3 00:49:12 13° SSW 00:52:54 31° SSE 00:57:01 10° E
ERS-2 4.4 00:50:05 10° ESE 00:53:12 26° ENE 00:56:19 10° N
STARLINK-1233 4.1 00:50:04 10° W 00:53:56 38° SSW 00:57:48 10° SE
STARLINK-1203 3.7 00:50:03 10° W 00:54:11 55° S 00:58:18 10° ESE
Cosmos 990 Rocket 4.1 00:49:09 10° NNW 00:54:28 82° ENE 00:59:44 10° SSE
SL-19 R/B 4.3 00:49:25 10° NNE 00:54:45 73° WNW 01:00:03 11° SSW
Cosmos 1437 2.5 00:52:48 14° SSW 00:55:17 89° WSW 00:58:20 10° NNE
STARLINK-1143 3.7 00:52:27 10° W 00:56:30 55° S 01:00:34 10° ESE
Cosmos 1674 4.3 00:53:29 10° WSW 00:56:38 25° WNW 00:59:49 10° N
STARLINK-1204 4.1 00:55:04 10° W 00:58:54 37° SSW 01:02:44 10° SE
ATLAS CENTAUR R/B 1.5 00:56:56 12° SW 01:00:56 69° SE 01:04:57 10° NE
STARLINK-1241 3.7 00:57:24 10° W 01:01:28 54° S 01:05:31 10° ESE
Cosmos 2263 Rocket 4.2 00:56:51 10° NNW 01:01:59 34° NE 01:07:02 10° E
SL-16 R/B 2.7 00:56:50 10° S 01:02:55 60° WSW 01:09:03 10° NNW
BREEZE-M R/B 4.5 01:01:08 11° SSW 01:03:17 15° SSE 01:05:16 10° SE
STARLINK-1238 4.2 01:00:01 10° W 01:03:50 36° SSW 01:07:38 10° SE
NOSS 3-4 (A) 3.5 00:57:54 10° SW 01:03:59 89° NW 01:10:38 10° NE
NOSS 3-4 (C) 3.5 00:57:59 10° SW 01:04:05 90° NW 01:10:45 10° NE
Cosmos 1455 2.3 01:00:36 10° N 01:04:23 78° ENE 01:08:07 10° SSE
ATLAS 3B R/B 3.6 01:00:01 10° WNW 01:05:38 28° WSW 01:11:23 10° S
Cosmos 1602 Rocket 3.6 01:02:02 10° S 01:06:21 77° E 01:10:41 10° NNE
STARLINK-1239 3.7 01:02:22 10° W 01:06:26 54° S 01:10:29 10° ESE
STARLINK-1201 4.2 01:05:01 10° W 01:08:48 34° SSW 01:12:34 10° SE
CENTAUR R/B 4.4 01:03:24 10° WNW 01:08:48 20° WSW 01:14:30 10° SSW
IRS-1D 4.5 01:03:40 10° NNE 01:08:50 46° E 01:13:56 10° S
GP-B 3.5 01:06:00 10° N 01:10:27 64° E 01:14:52 10° S
STARLINK-1240 3.7 01:07:21 10° W 01:11:24 53° S 01:15:27 10° ESE
Meteor 2-1 Rocket 4.3 01:06:06 10° NNW 01:11:33 62° W 01:16:59 10° S
STARLINK-1206 4.3 01:10:00 10° W 01:13:44 33° SSW 01:17:29 10° SE
Cosmos-2242 3.2 01:09:39 10° N 01:13:57 74° ENE 01:18:12 10° SSE
BREEZE-M DEB (TANK) 2.8 01:12:39 12° SSW 01:14:08 18° S 01:15:54 10° ESE
Cosmos 1400 Rocket 4.2 01:12:15 10° N 01:16:11 42° ENE 01:20:07 10° SE
STARLINK-1216 3.8 01:12:19 10° W 01:16:22 52° S 01:20:24 10° ESE
STARLINK-1205 4.3 01:15:00 10° W 01:18:41 32° SSW 01:22:23 10° SE
Cosmos 1745 Rocket 4.1 01:12:53 10° SSW 01:19:02 71° WNW 01:25:12 10° N
Cosmos 2181 Rocket 4.2 01:13:55 10° NNW 01:20:22 87° ENE 01:26:50 10° S
STARLINK-1237 3.8 01:17:18 10° W 01:21:20 51° S 01:25:22 10° ESE
Cosmos 1356 Rocket 4.4 01:18:11 10° NNW 01:21:52 32° W 01:25:34 10° SSW
Cosmos 2227 Rocket 2.3 01:16:37 10° NW 01:22:13 59° WSW 01:27:46 10° SSE
RESURS DK-1 2.4 01:19:17 10° SW 01:23:27 89° SE 01:27:37 10° NE
STARLINK-1218 4.4 01:19:57 10° W 01:23:37 30° SSW 01:27:16 10° SE
SL-08 R/B 3.6 01:19:30 10° SSE 01:24:10 73° ENE 01:28:49 10° NNW
CZ-2D R/B 2.2 01:19:13 10° NNE 01:24:32 85° WNW 01:29:47 10° SSW
Helios 1B rocket 4.4 01:21:44 10° N 01:24:42 19° NW 01:27:41 10° W
STARLINK-1202 3.8 01:22:17 10° W 01:26:18 50° S 01:30:20 10° ESE
ADEOS II 2.8 01:22:01 10° NNE 01:27:10 50° E 01:32:16 10° S
Meteor 1-24 Rocket 4.3 01:22:20 10° SW 01:27:23 42° WNW 01:32:35 10° N
STARLINK-1254 4.4 01:24:57 10° W 01:28:34 29° SSW 01:32:11 10° SSE
Cosmos 2369 Rocket 3.8 01:24:01 10° W 01:28:57 29° NNW 01:33:52 10° NNE
Cosmos 1763 Rocket 4.5 01:25:06 10° S 01:29:52 41° ESE 01:34:38 10° NE
Cosmos 1697 Rocket 4.1 01:25:18 10° SSE 01:30:12 31° ESE 01:35:07 10° NE
Cosmos 1703 3.9 01:28:03 10° S 01:31:55 54° E 01:35:48 10° NNE
ATLAS 2AS CENTAUR R/B 3.3 01:25:08 10° WSW 01:33:12 74° NNW 01:41:01 10° NE
STARLINK-1231 4.5 01:29:58 10° W 01:33:32 28° SSW 01:37:05 10° SSE
Resurs 1-4 Rocket 2.2 01:29:00 10° NNE 01:34:17 72° WNW 01:39:33 10° SSW
STARLINK-1246 3.9 01:32:13 10° W 01:36:13 48° SSW 01:40:13 10° ESE
ARIANE 5 R/B 3.6 01:34:25 10° NNE 01:39:16 41° E 01:44:01 10° SSE
Cosmos 1943 Rocket 4.2 01:35:22 10° WNW 01:39:50 24° NNW 01:44:22 10° NNE
STARLINK-1224 3.9 01:37:11 10° W 01:41:11 47° SSW 01:45:09 10° ESE
NPP 3.8 01:36:18 10° NNE 01:41:43 73° WNW 01:47:05 10° SSW
USA 81 4.2 01:37:08 10° SSW 01:42:22 66° W 01:47:40 10° N
STARLINK-52 4.3 01:40:03 10° SW 01:42:47 26° SSE 01:45:31 10° E
Cosmos 1758 Rocket 3.6 01:40:23 10° S 01:44:44 89° ESE 01:49:09 10° NNE
STARLINK-1225 3.9 01:42:10 10° W 01:46:09 46° SSW 01:50:08 10° ESE
Cosmos 1898 Rocket 3.9 01:42:06 10° NW 01:47:13 47° WSW 01:52:18 10° S
